Location: Fours
(44.3167°N, 6.7000°E)
Time: 10:04:43
(UTC+00:00)

Cosmos 2227 - Pass Details

Date: 10 December 2023
Orbit: 836 x 859 km, 71.0° (Epoch: 21 February)

Event Time Altitude Azimuth Distance (km) Brightness Sun altitude
Rises 18:42:29 0° 275° (W) 3,429 8.5 -29.2°
Reaches altitude 10° 18:48:08 10° 320° (NW) 2,493 7.0 -30.2°
Maximum altitude 18:48:36 10° 324° (NW) 2,486 7.0 -30.3°
Drops below altitude 10° 18:49:04 10° 329° (NNW) 2,492 6.9 -30.4°
Enters shadow 18:52:01 - 356° (N) 2,812 6.9 -30.9°
